Weather History for KOFK - November, 2013

Change the Weather History Date:

Monday, November 4, 2013

  Actual Average Record
Temperature  
Mean Temperature 41 °F 43 °F  
Max Temperature 55 °F 54 °F 83 °F (1909)
Min Temperature 27 °F 31 °F -9 °F (1991)
Degree Days  
Heating Degree Days 24 22  
Month to date heating degree days 73 86  
Since 1 July heating degree days 595 671  
Cooling Degree Days 0 0  
Month to date cooling degree days 0 0  
Year to date cooling degree days 1005 915  
Moisture  
Dew Point 31 °F    
Average Humidity 60    
Maximum Humidity 85    
Minimum Humidity 35    
Precipitation  
Precipitation T in 0.05 in 0.61 in (1925)
Month to date precipitation 0.03 0.20  
Year to date precipitation 23.99 25.49  
Snow  
Snow 0.00 in 0.10 in - ()
Month to date snowfall 0.0 0.4  
Since 1 July snowfall 0.0 1.2  
Snow Depth 0.00 in    
Sea Level Pressure  
Sea Level Pressure 29.98 in    
Wind  
Wind Speed 8 mph (NW)    
Max Wind Speed 26 mph    
Max Gust Speed 32 mph    
Visibility 10 miles    
Events      
T = Trace of Precipitation, MM = Missing Value Source: NWS Daily Summary

Daily Weather History Graph

Daily Weather History Graph

Search for Another Location

Airport or City:

Trip Planner

Search our weather history database for the weather conditions in past years. The results will help you decide how hot, cold, wet, or windy it might be!

Date:

Astronomy

Nov. 04, 2013 Rise Set
Actual Time 7:06 AM CST 5:19 PM CST
Civil Twilight 6:37 AM CST 5:48 PM CST
Nautical Twilight 6:03 AM CST 6:22 PM CST
Astronomical Twilight 5:31 AM CST 6:54 PM CST
Moon 8:19 AM CST (11/4) 6:24 PM CST (11/4)
Length of Visible Light 11h 11m
Length of Day
10h 13m
New Moon, 2% of the Moon is Illuminated
Nov 4
New Moon
Nov 9
First Quarter
Nov 17
Full
Nov 25
Last Quarter
Dec 2
New

Hourly Weather History & Observations

Time (CST) Temp. Windchill Dew Point Humidity Pressure Visibility Wind Dir Wind Speed Gust Speed Precip Events Conditions
12:56 AM 48.0 °F - 37.0 °F 66% 29.72 in 10.0 mi SSE 13.8 mph - N/A   Clear
1:56 AM 46.0 °F 41.9 °F 37.0 °F 71% 29.73 in 10.0 mi SSE 8.1 mph - N/A   Clear
2:56 AM 44.1 °F 39.0 °F 36.0 °F 73% 29.73 in 10.0 mi SSE 9.2 mph - N/A   Clear
3:56 AM 39.9 °F 36.7 °F 35.1 °F 83% 29.76 in 10.0 mi WNW 4.6 mph - N/A   Clear
4:56 AM 39.9 °F - 36.0 °F 86% 29.78 in 10.0 mi Calm Calm - N/A   Partly Cloudy
5:56 AM 42.1 °F 37.1 °F 36.0 °F 79% 29.83 in 10.0 mi West 8.1 mph - N/A   Overcast
6:56 AM 43.0 °F 36.4 °F 35.1 °F 74% 29.81 in 10.0 mi NNW 12.7 mph - 0.00 in   Overcast
7:56 AM 43.0 °F 36.8 °F 36.0 °F 76% 29.88 in 10.0 mi NNW 11.5 mph - N/A   Mostly Cloudy
8:56 AM 45.0 °F 37.6 °F 35.1 °F 68% 29.93 in 10.0 mi NW 17.3 mph - N/A   Overcast
9:56 AM 48.0 °F - 36.0 °F 63% 29.95 in 10.0 mi NNW 21.9 mph 26.5 mph N/A   Partly Cloudy
10:56 AM 51.1 °F - 33.1 °F 50% 29.98 in 10.0 mi NNW 26.5 mph 31.1 mph N/A   Clear
11:56 AM 52.0 °F - 33.1 °F 49% 30.00 in 10.0 mi NW 17.3 mph 24.2 mph N/A   Overcast
12:56 PM 51.1 °F - 30.0 °F 44% 30.00 in 10.0 mi NNW 12.7 mph - N/A   Overcast
1:56 PM 54.0 °F - 30.0 °F 40% 30.01 in 10.0 mi NNW 11.5 mph 18.4 mph N/A   Scattered Clouds
2:56 PM 55.0 °F - 28.9 °F 37% 30.01 in 10.0 mi NNW 6.9 mph - N/A   Clear
3:56 PM 52.0 °F - 27.0 °F 38% 30.04 in 10.0 mi NNW 4.6 mph - N/A   Clear
4:56 PM 51.1 °F - 25.0 °F 36% 30.06 in 10.0 mi Calm Calm - N/A   Clear
5:56 PM 42.1 °F 40.2 °F 28.0 °F 58% 30.09 in 10.0 mi SW 3.5 mph - N/A   Clear
6:56 PM 35.1 °F - 28.0 °F 76% 30.13 in 10.0 mi Calm Calm - N/A   Clear
7:56 PM 34.0 °F - 27.0 °F 75% 30.14 in 10.0 mi Calm Calm - N/A   Clear
8:56 PM 34.0 °F - 27.0 °F 75% 30.16 in 10.0 mi Calm Calm - N/A   Clear
9:56 PM 34.0 °F - 27.0 °F 75% 30.17 in 10.0 mi Calm Calm - N/A   Clear
10:56 PM 33.1 °F - 27.0 °F 78% 30.17 in 10.0 mi Calm Calm - N/A   Clear
11:56 PM 28.9 °F - 25.0 °F 85% 30.18 in 10.0 mi Calm Calm - N/A   Clear